• In Russia
  • List of Countries
  • For 7 days
  • Water Temperature
  • Weather Map
  • Weather Widgets
  • user-avatar
    Login

    Hourly Weather Adelaide

    Today, 16 October, Wednesday

    Time Temperature Precipitation Wind Pressure Humidity
    00:00 +12°C° 0.1 mm 0 mps 755 mmHg 80%
    01:00 +12°C° 0.3 mm 0 mps 755 mmHg 81%
    02:00 +12°C° 0.3 mm 0 mps 755 mmHg 83%
    03:00 +14°C° 0 mm 1 mps 754 mmHg 85%
    04:00 +13°C° 2.5 mm 2 mps 755 mmHg 88%
    05:00 +13°C° 2.5 mm 2 mps 756 mmHg 91%
    06:00 +12°C° 2.5 mm 3 mps 756 mmHg 95%
    07:00 +13°C° 0.4 mm 3 mps 756 mmHg 92%
    08:00 +13°C° 0.4 mm 4 mps 756 mmHg 89%
    09:00 +14°C° 0 mm 3 mps 757 mmHg 88%
    10:00 +15°C° 0.1 mm 4 mps 756 mmHg 79%
    11:00 +15°C° 0.1 mm 4 mps 756 mmHg 70%
    12:00 +16°C° 0.1 mm 5 mps 756 mmHg 60%
    13:00 +16°C° 0 mm 5 mps 755 mmHg 60%
    14:00 +16°C° 0 mm 5 mps 755 mmHg 59%
    15:00 +16°C° 0 mm 5 mps 755 mmHg 57%
    16:00 +15°C° 0.1 mm 6 mps 755 mmHg 63%
    17:00 +14°C° 0.1 mm 7 mps 756 mmHg 69%
    18:00 +12°C° 0.1 mm 7 mps 756 mmHg 75%
    19:00 +12°C° 0.1 mm 8 mps 756 mmHg 75%
    20:00 +11°C° 0.1 mm 8 mps 757 mmHg 74%
    21:00 +10°C° 0.1 mm 8 mps 757 mmHg 74%
    22:00 +10°C° 0 mm 8 mps 757 mmHg 73%
    23:00 +10°C° 0 mm 7 mps 757 mmHg 72%

    Tomorrow, 17 October, Thursday

    Time Temperature Precipitation Wind Pressure Humidity
    00:00 +10°C° 0 mm 7 mps 757 mmHg 71%
    01:00 +9°C° 0.1 mm 7 mps 757 mmHg 72%
    02:00 +9°C° 0.1 mm 7 mps 757 mmHg 73%
    03:00 +9°C° 0.1 mm 7 mps 757 mmHg 74%
    04:00 +9°C° 0 mm 7 mps 758 mmHg 72%
    05:00 +9°C° 0 mm 7 mps 758 mmHg 70%
    06:00 +10°C° 0 mm 6 mps 759 mmHg 68%
    07:00 +10°C° 0 mm 6 mps 759 mmHg 64%
    08:00 +11°C° 0 mm 6 mps 759 mmHg 59%
    09:00 +13°C° 0 mm 6 mps 760 mmHg 55%
    10:00 +14°C° 0 mm 5 mps 760 mmHg 53%
    11:00 +14°C° 0 mm 5 mps 759 mmHg 52%
    12:00 +15°C° 0 mm 4 mps 759 mmHg 51%
    13:00 +15°C° 0 mm 4 mps 759 mmHg 53%
    14:00 +14°C° 0 mm 4 mps 759 mmHg 55%
    15:00 +14°C° 0 mm 4 mps 759 mmHg 57%
    16:00 +13°C° 0 mm 3 mps 759 mmHg 62%
    17:00 +13°C° 0 mm 2 mps 759 mmHg 66%
    18:00 +12°C° 0 mm 2 mps 759 mmHg 71%
    19:00 +12°C° 0 mm 2 mps 759 mmHg 74%
    20:00 +10°C° 0 mm 3 mps 760 mmHg 76%
    21:00 +10°C° 0 mm 3 mps 760 mmHg 79%
    22:00 +10°C° 0 mm 3 mps 760 mmHg 80%
    23:00 +10°C° 0 mm 3 mps 759 mmHg 81%

    Day after tomorrow, 18 October, Friday

    Time Temperature Precipitation Wind Pressure Humidity
    00:00 +10°C° 0 mm 3 mps 759 mmHg 82%
    01:00 +10°C° 0 mm 3 mps 759 mmHg 83%
    02:00 +8°C° 0 mm 4 mps 758 mmHg 84%
    03:00 +8°C° 0 mm 4 mps 757 mmHg 86%
    04:00 +8°C° 0 mm 5 mps 758 mmHg 84%
    05:00 +9°C° 0 mm 5 mps 758 mmHg 82%
    06:00 +9°C° 0 mm 5 mps 758 mmHg 81%
    07:00 +10°C° 0 mm 6 mps 758 mmHg 77%
    08:00 +13°C° 0 mm 6 mps 758 mmHg 74%
    09:00 +14°C° 0 mm 7 mps 758 mmHg 71%
    10:00 +14°C° 0 mm 7 mps 758 mmHg 70%
    11:00 +15°C° 0 mm 7 mps 758 mmHg 70%
    12:00 +15°C° 0 mm 7 mps 758 mmHg 69%
    13:00 +16°C° 0.1 mm 7 mps 757 mmHg 71%
    14:00 +16°C° 0.1 mm 7 mps 757 mmHg 72%
    15:00 +16°C° 0.1 mm 8 mps 757 mmHg 74%
    16:00 +15°C° 0 mm 7 mps 757 mmHg 75%
    17:00 +14°C° 0 mm 7 mps 758 mmHg 76%
    18:00 +13°C° 0 mm 6 mps 758 mmHg 77%
    19:00 +13°C° 0 mm 6 mps 758 mmHg 76%
    20:00 +13°C° 0 mm 6 mps 759 mmHg 75%
    21:00 +12°C° 0 mm 5 mps 759 mmHg 75%
    22:00 +12°C° 0 mm 5 mps 759 mmHg 76%
    23:00 +10°C° 0 mm 5 mps 759 mmHg 77%

    19 October, Saturday

    Time Temperature Precipitation Wind Pressure Humidity
    00:00 +10°C° 0 mm 4 mps 759 mmHg 79%
    01:00 +10°C° 0 mm 5 mps 760 mmHg 77%
    02:00 +10°C° 0 mm 5 mps 760 mmHg 74%
    03:00 +10°C° 0 mm 6 mps 760 mmHg 72%
    04:00 +10°C° 0.1 mm 6 mps 760 mmHg 72%
    05:00 +10°C° 0.1 mm 6 mps 761 mmHg 71%
    06:00 +10°C° 0.1 mm 6 mps 761 mmHg 71%
    07:00 +11°C° 0 mm 6 mps 762 mmHg 66%
    08:00 +11°C° 0 mm 6 mps 762 mmHg 61%
    09:00 +13°C° 0 mm 6 mps 762 mmHg 56%
    10:00 +13°C° 0 mm 6 mps 762 mmHg 55%
    11:00 +13°C° 0 mm 6 mps 763 mmHg 54%
    12:00 +14°C° 0 mm 6 mps 763 mmHg 53%
    13:00 +14°C° 0 mm 6 mps 763 mmHg 55%
    14:00 +14°C° 0 mm 6 mps 763 mmHg 57%
    15:00 +14°C° 0 mm 6 mps 763 mmHg 59%
    16:00 +13°C° 0 mm 6 mps 763 mmHg 63%
    17:00 +12°C° 0 mm 5 mps 763 mmHg 66%
    18:00 +12°C° 0 mm 4 mps 764 mmHg 69%
    19:00 +11°C° 0 mm 4 mps 764 mmHg 73%
    20:00 +10°C° 0 mm 4 mps 765 mmHg 76%
    21:00 +9°C° 0 mm 3 mps 765 mmHg 80%
    22:00 +9°C° 0 mm 3 mps 765 mmHg 80%
    23:00 +9°C° 0 mm 3 mps 765 mmHg 81%

    20 October, Sunday

    Time Temperature Precipitation Wind Pressure Humidity
    00:00 +9°C° 0 mm 2 mps 765 mmHg 82%
    01:00 +9°C° 0 mm 2 mps 765 mmHg 82%
    02:00 +9°C° 0 mm 2 mps 766 mmHg 82%
    03:00 +9°C° 0 mm 2 mps 766 mmHg 82%
    04:00 +9°C° 0 mm 2 mps 766 mmHg 81%
    05:00 +11°C° 0 mm 1 mps 766 mmHg 79%
    06:00 +11°C° 0 mm 1 mps 767 mmHg 78%
    07:00 +13°C° 0 mm 2 mps 767 mmHg 71%
    08:00 +14°C° 0 mm 2 mps 767 mmHg 64%
    09:00 +15°C° 0 mm 2 mps 767 mmHg 57%
    10:00 +16°C° 0 mm 3 mps 767 mmHg 55%
    11:00 +17°C° 0 mm 3 mps 767 mmHg 54%
    12:00 +18°C° 0 mm 4 mps 767 mmHg 52%
    13:00 +18°C° 0 mm 4 mps 766 mmHg 54%
    14:00 +18°C° 0 mm 4 mps 766 mmHg 56%
    15:00 +17°C° 0 mm 4 mps 766 mmHg 58%
    16:00 +15°C° 0 mm 4 mps 766 mmHg 64%
    17:00 +14°C° 0 mm 4 mps 766 mmHg 70%
    18:00 +13°C° 0 mm 4 mps 766 mmHg 77%
    19:00 +12°C° 0 mm 3 mps 767 mmHg 80%
    20:00 +10°C° 0 mm 3 mps 767 mmHg 83%
    21:00 +9°C° 0 mm 3 mps 767 mmHg 86%
    22:00 +9°C° 0 mm 3 mps 767 mmHg 87%
    23:00 +9°C° 0 mm 2 mps 767 mmHg 87%

    21 October, Monday

    Time Temperature Precipitation Wind Pressure Humidity
    00:00 +8°C° 0 mm 2 mps 766 mmHg 87%
    01:00 +8°C° 0 mm 2 mps 766 mmHg 86%
    02:00 +8°C° 0 mm 2 mps 766 mmHg 85%
    03:00 +9°C° 0 mm 1 mps 766 mmHg 83%
    04:00 +9°C° 0 mm 1 mps 766 mmHg 78%
    05:00 +10°C° 0 mm 1 mps 766 mmHg 73%
    06:00 +10°C° 0 mm 1 mps 767 mmHg 68%
    07:00 +13°C° 0 mm 1 mps 767 mmHg 59%
    08:00 +18°C° 0 mm 1 mps 767 mmHg 51%
    09:00 +21°C° 0 mm 1 mps 767 mmHg 42%
    10:00 +22°C° 0 mm 1 mps 766 mmHg 40%
    11:00 +23°C° 0 mm 2 mps 766 mmHg 37%
    12:00 +23°C° 0 mm 2 mps 765 mmHg 35%
    13:00 +23°C° 0 mm 2 mps 765 mmHg 36%
    14:00 +22°C° 0 mm 3 mps 764 mmHg 37%
    15:00 +22°C° 0 mm 3 mps 764 mmHg 38%
    16:00 +21°C° 0 mm 3 mps 764 mmHg 44%
    17:00 +19°C° 0 mm 3 mps 764 mmHg 51%
    18:00 +18°C° 0 mm 3 mps 764 mmHg 57%
    19:00 +17°C° 0 mm 3 mps 764 mmHg 57%
    20:00 +16°C° 0 mm 3 mps 764 mmHg 58%
    21:00 +14°C° 0 mm 3 mps 764 mmHg 58%
    22:00 +14°C° 0 mm 3 mps 764 mmHg 56%
    23:00 +14°C° 0 mm 3 mps 763 mmHg 55%
    Show more